Location: Lhota
(50.0887°N, 14.0116°E)
Time: 19:13:42
(UTC+00:00)

Cosmos 1151 Rocket - Pass Details

Date: 19 May 2025
Orbit: 586 x 606 km, 82.5° (Epoch: 20 June)

Event Time Altitude Azimuth Distance (km) Brightness Sun altitude
Exits shadow 22:19:34 38° 125° (SE) 901 3.5 -19.4°
Maximum altitude 22:20:24 43° 93° (E) 828 3.5 -19.4°
Drops below altitude 10° 22:24:25 10° 22° (NNE) 1,922 6.4 -19.5°
Sets 22:26:42 0° 16° (NNE) 2,828 7.6 -19.5°
